Time,TemperatureF,DewpointF,PressureIn,WindDirection,WindDirectionDegrees,WindSpeedMPH,WindSpeedGustMPH,Humidity,HourlyPrecipIn,Conditions,Clouds,dailyrainin,SoftwareType,DateUTC
2013-05-15 00:00:00,55.0,-99.9,-100.00,SE,139,49.0,-999.0,-999,-99.99,,,-99.99,,2013-05-15 06:00:00,
2013-05-15 00:42:00,55.0,-99.9,-100.00,SE,139,49.0,-999.0,-999,-99.99,,,-99.99,,2013-05-15 06:42:00,
2013-05-15 00:52:00,55.0,-99.9,-100.00,SE,139,49.0,-999.0,-999,-99.99,,,-99.99,,2013-05-15 06:52:00,
2013-05-15 01:00:00,55.0,-99.9,-100.00,North,-999,-999.0,-999.0,-999,-99.99,,,0.00,,2013-05-15 07:00:00,
2013-05-15 01:52:00,55.0,-99.9,-100.00,North,-999,-999.0,-999.0,-999,-99.99,,,0.00,,2013-05-15 07:52:00,
2013-05-15 02:00:00,51.0,-99.9,-100.00,SSE,147,55.0,-999.0,-999,-99.99,,,0.00,,2013-05-15 08:00:00,
2013-05-15 03:00:00,52.0,-99.9,-100.00,SSE,161,57.0,-999.0,-999,-99.99,,,0.00,,2013-05-15 09:00:00,
2013-05-15 05:00:00,48.0,-99.9,-100.00,South,173,62.0,-999.0,-999,-99.99,,,0.00,,2013-05-15 11:00:00,
2013-05-15 06:00:00,54.0,-99.9,-100.00,SE,139,63.0,-999.0,-999,-99.99,,,0.00,,2013-05-15 12:00:00,
2013-05-15 07:00:00,55.0,-99.9,-100.00,SE,129,46.0,-999.0,-999,-99.99,,,0.00,,2013-05-15 13:00:00,
2013-05-15 08:00:00,57.0,-99.9,-100.00,SE,133,48.0,-999.0,-999,-99.99,,,0.00,,2013-05-15 14:00:00,
2013-05-15 08:52:00,57.0,-99.9,-100.00,SE,133,48.0,-999.0,-999,-99.99,,,0.00,,2013-05-15 14:52:00,
2013-05-15 09:00:00,59.0,-99.9,-100.00,ESE,120,46.0,-999.0,-999,-99.99,,,0.00,,2013-05-15 15:00:00,
2013-05-15 11:00:00,63.0,-99.9,-100.00,East,97,36.0,-999.0,-999,-99.99,,,0.00,,2013-05-15 17:00:00,
2013-05-15 12:00:00,63.0,-99.9,-100.00,East,89,32.0,-999.0,-999,-99.99,,,0.00,,2013-05-15 18:00:00,
2013-05-15 13:00:00,61.0,-99.9,-100.00,East,96,35.0,-999.0,-999,-99.99,,,0.00,,2013-05-15 19:00:00,
2013-05-15 15:00:00,52.0,-99.9,-100.00,SW,228,83.0,-999.0,-999,-99.99,,,-99.99,,2013-05-15 21:00:00,
2013-05-15 16:00:00,55.0,-99.9,-100.00,SSW,199,75.0,-999.0,-999,-99.99,,,-99.99,,2013-05-15 22:00:00,
2013-05-15 16:53:00,55.0,-99.9,-100.00,SSW,199,75.0,-999.0,-999,-99.99,,,-99.99,,2013-05-15 22:53:00,
2013-05-15 17:00:00,56.0,-99.9,-100.00,South,174,61.0,-999.0,-999,-99.99,,,-99.99,,2013-05-15 23:00:00,
2013-05-15 17:52:00,56.0,-99.9,-100.00,South,174,61.0,-999.0,-999,-99.99,,,-99.99,,2013-05-15 23:52:00,
2013-05-15 18:00:00,56.0,-99.9,-100.00,SSE,159,56.0,-999.0,-999,-99.99,,,-99.99,,2013-05-16 00:00:00,
2013-05-15 19:00:00,53.0,-99.9,-100.00,South,175,63.0,-999.0,-999,-99.99,,,-99.99,,2013-05-16 01:00:00,
2013-05-15 20:00:00,50.0,-99.9,-100.00,SSW,201,80.0,-999.0,-999,-99.99,,,-99.99,,2013-05-16 02:00:00,
2013-05-15 21:00:00,45.0,-99.9,-100.00,NW,317,113.0,-999.0,-999,-99.99,,,0.00,,2013-05-16 03:00:00,
2013-05-15 22:00:00,43.0,-99.9,-100.00,NNW,339,113.0,-999.0,-999,-99.99,,,0.00,,2013-05-16 04:00:00,
2013-05-15 23:00:00,43.0,-99.9,-100.00,NNW,336,114.0,-999.0,-999,-99.99,,,0.00,,2013-05-16 05:00:00,
2013-05-15 23:52:00,43.0,-99.9,-100.00,NNW,336,114.0,-999.0,-999,-99.99,,,0.00,,2013-05-16 05:52:00,